Погода в Велиже

Погода в Велиже : погода сейчас, прогноз погоды и архив. Всё, что Вы хотите узнать о погоде в Велиже!

Поиск расширенной информации на нашем сайте:

Полезная информация: http://social-media.com.ua/ накрутка лайков подписчиков - накрутка подписчиков вк.

Другие новости

Новости СМИ2

Главная страница сайта

Новости сайта

02.10.2013

Напоминаем, что на нашем новом сайте вы можете получить высокодетализированные прогнозы погоды по пунктам России, СНГ и мира (включающие важные для авиации метеовеличины, такие как направление и скорость ветра, видимость, явления погоды, количество и форма облачности, нижняя и верхняя граница облачности), а также ознакомиться с разнообразными материалами по авиационной метеорологии и подборкой полезных ссылок на эту тему.

Сайт Метеоцентр.Азия посвящён разработке технологий оптимизации авиаметеорологического обслуживания, включая проектирование и перспективное создание нескольких автоматизированных авиаметеорологических систем:
- система выпуска высокодетальных прогностических карт явлений погоды для нижнего воздушного пространства по России и ближнему зарубежью;
- система верификации прогнозов TAF (выпускаемых синоптиками официальных АМСГ РФ и ближнего зарубежья) и AUTOTAF (выпускаемых сайтом Метеоцентр.Азия) - выявление ошибок, онлайн-сопоставление с фактической погодой METAR, автоматическое внесение коррективов в прогнозы при резком отклонении фактической погоды от прогноза, подсчёт оправдываемости прогнозов по элементам и в целом;
- система обработки, анализа и отображения авиаметеорологической информации для применения провайдерами метеорологической информации.

Рекомендуем: Мстерская лаковая миниатюра народные промыслы холуйская лаковая миниатюра.

Погода в Велиже - сегодня

Время (UTC), дата Ветер
(°,м/с) 
Видим.   Явления Облачность Т
(°С)
Тd
(°С)
f(%) Тe
(°С)
Pmin
(гПа)
dP
(гПа)
Po
(мм)
O2
(г/м3)
Тmin Tmax R s Состояние
почвы
00 24.03.17 тихо ()   15000 м    ясно 
-1.8 -2.8 93 -2  1023.6  -0.9  752  305           
03 24.03.17 тихо ()   9000 м  дымка  10/10 800 м 
[Sc]
-0.4 -1.9 90 -0  1021.9  -1.6  751  303  -1.9         
06 24.03.17 240 (ЮЗ) 15000 м  слаб. ливневой дождь  10/10 700 м кучево-дожд. 
[Cb cap]
+2.2 +0.3 87 +3  1021.1  -0.6  750  300  -1.9    0.0     
09 24.03.17 180 (Ю) 23000 м  {ливн. осадки}  10/10 720 м кучево-дожд. 
[Cb cap]
+3.9 +2.7 92 +5  1019.1  -1.8  749  297           
12 24.03.17 280 (З) 25000 м  {ливн. осадки}  6/0 средняя, верхняя 
[Ac trans|Ci fib]
+6.4 -3.2 50 +5  1018.2  -0.8  748  295           
15 24.03.17 300 (СЗ) 6-10{10}  20000 м    8/8 750 м кучево-дожд. 
[Cb cap]
+5.5 -6.5 42 +3  1017.9  -0.3  748  296         
18 24.03.17 290 (З) 5{13}  15000 м    6/6 800 м кучево-дожд. 
[Cb cap]
+1.2 -5.9 59 -2  1020.5  2.2  750  301    +7.2     
21 24.03.17 280 (З) 15000 м    ясно 
-0.9 -6.9 64 -3  1021.5  0.9  750  304           
00 25.03.17 270 (З) 15000 м    ясно 
-2.1 -7.4 67 -4  1022.2  0.5  751  306           
03 25.03.17 250 (З) 15000 м    ясно 
-4.6 -7.3 81 -6  1021.9  -0.4  751  308  -4.6         
06 25.03.17 260 (З) 25000 м    ясно 
-1 -5.2 73 -3  1020.8  -0.9  750  304  -5.1         
09 25.03.17 260 (З) 25000 м    ясно 
+3.7 -6.8 46 +2  1018.7  -1.7  749  298           
12 25.03.17 230 (ЮЗ) 25000 м    8/0 средняя, верхняя 
[Ac und|Ci]
+4.5 -9.1 36 +3  1016.3  -2.3  747  297           
15 25.03.17 260 (З) 25000 м    10/10 700 м 
[Sc]
+3.6 -6.3 48 +3  1015.1  -1.2  746  297           
18 25.03.17 230 (ЮЗ) 15000 м    ясно 
-1.6 -5.5 75 -1  1015.6  -0.1  746  303    +5       
21 25.03.17 300 (СЗ) 15000 м    ясно 
-3.8 -4.9 92 -3  1017  1.2  747  306           
00 26.03.17 тихо ()   15000 м    ясно 
-5.4 -6.2 94 -5  1018.2  1.1  748  308           
03 26.03.17 260 (З) 15000 м    8/0 средняя 
[Ac und]
-3.2 -4.6 90 -3  1018.8  0.7  748  306  -5.8         
06 26.03.17 тихо ()   20000 м    10/0 средняя 
[Ac und]
-0.5 -2.7 85 -1  1019.6  749  303  -5.8         
09 26.03.17 260 (З) 21000 м  в посл. час ливневой снег  10/10 630 м кучево-дожд. 
[Cb cap]
+2 -1.8 76 1019.9  0.5  749  300           
12 26.03.17 250 (З) 20000 м  {ливн. осадки}  10/10 600 м кучево-дожд. 
[Cb cap]
+4 -1.7 66 +3  1017.8  -2  748  297           
15 26.03.17 230 (ЮЗ) 20000 м    10/10 600 м кучево-дожд. 
[Cb cap]
+3.8 -1.9 66 +1  1014.6  -3.2  746  296           
18 26.03.17 220 (ЮЗ) 5{10}  12000 м  слаб. ливневой снег  10/10 660 м кучево-дожд. 
[Cb cap]
+1.7 -0.9 83 -1  1010.8  -3.8  743  298    +4.3  0.0     
21 26.03.17 240 (ЮЗ) 7-12{13}  12000 м  слаб. ливневой дождь  10/10 570 м кучево-дожд. 
[Cb cap]
+1.5 +0.3 92 -2  1005.3  -5.4  739  296           
00 27.03.17 260 (З) 8-11{14}  20000 м  {ливн. осадки}  6/6 800 м 
[Sc diur, vesp]
+3.4 +1.2 85 1002.5  -2.6  737  293           
Время (UTC), дата Ветер
(°,м/с) 
Видим.   Явления Облачность Т
(°С)
Тd
(°С)
f(%) Тe
(°С)
Pmin
(гПа)
dP
(гПа)
Po
(мм)
O2
(г/м3)
Тmin Tmax R s Состояние
почвы

Для получения пояснительной информации подведите курсор к названию столбца.

ПОГОДА в Велиже - архив

Всё, что Вы хотите узнать о погоде в Велиже - удобно и подробно!

Выберите нужную дату (начиная с 1 января 2015* года) и нажмите кнопку "Найти".
Будут отображены архивные сводки погоды по пункту Велиж, начиная с указанной даты.


Отображать данные в формате CSV (для использования в таблицах Excel)


Внимание! Наш архив погоды предназначен исключительно для личного некоммерческого использования в познавательных целях. Если Вам необходимы официальные справки о состоянии погоды (для производственных, юридических, коммерческих и т.п. целей), обращайтесь в органы Росгидромета.

*Примечание: данная дата относится к архиву по метеостанциям СССР (Россия, СНГ, Балтия).
Архив по метеостанциям Зарубежной Европы и Азии (кроме Китая) хранится 10 дней, по другим регионам земного шара (Китай, Африка, Америка, Австралия, Океания) - 1 день.

Велиж - район местоположения метеостанции


Название, широта, долгота, высота метеостанции:
Велиж 55.6°ш. 31.2°д. 183 м над ур. моря [Российская Федерация]

Дополнительная информация

В oтличие oт бoльшинства пoгoдных сайтoв мы публикуем пoдрoбную метеoинфoрмацию в детальнoм прoфессиoнальнoм фoрмате.

Характеристики температуры и влажнoсти вoздуха измеряются на высoте 2 м в тени вдали oт зданий и деревьев.
Скoрoсть ветра измеряется на высoте 10 м (на урoвне рoста челoвека скoрoсть ветра ниже в 1.5-2 раза). Если метеoстанция нахoдится в гoрoде или в лесу, тo скoрoсть ветра занижена на 2-4 м/с пo сравнению с oткрытым местoм. Скoрoсть ветра над акватoриями крупных рек и oзёр, а также на вершинах хoлмoв на 2-5 м/с выше, чем в oбычных услoвиях.
Атмoсфернoе давление в разных тoчках местнoсти мoжет значительнo oтличаться oт давления на метеoстанции, в зависимoсти oт услoвий рельефа (при пoдъёме на 10 м давление пoнижается примернo на 1 мм рт.ст.).